Regional Weather Roundup
Issued by NWS

Home | Current Version | Previous Version | Text Only | Print | Product List | Glossary Off
Versions: 1 2 3 4 5 6 7 8 9 10 11 12 13 14 15 16 17 18 19 20 21 22 23 24 25 26 27 28 29 30 31 32 33 34 35 36 37 38 39 40 41 42 43 44 45 46 47 48 49 50

780
ASUS43 KMKX 241200
RWRWI

WISCONSIN REGIONAL WEATHER ROUNDUP
NATIONAL WEATHER SERVICE MILWAUKEE/SULLIVAN WI
700 AM CDT TUE APR 24 2018

NOTE: "FAIR" INDICATES FEW OR NO CLOUDS BELOW 12,000 FEET WITH NO
SIGNIFICANT WEATHER AND/OR OBSTRUCTIONS TO VISIBILITY.

WIZ001-002-006>008-014>016-023>028-241300-
NORTHWEST WISCONSIN

CITY           SKY/WX    TMP DP  RH WIND       PRES   REMARKS
SUPERIOR ARPT  FAIR      34  29  82 E3        30.18R
6HR MIN TEMP:  32; 6HR MAX TEMP:  42;

ASHLAND        FAIR      40  31  70 NE9       30.18R WCI  34
6HR MIN TEMP:  36; 6HR MAX TEMP:  48;

HAYWARD        MOCLDY    34  29  82 N5        30.13S WCI  30
6HR MIN TEMP:  30; 6HR MAX TEMP:  35;

SIREN          FAIR      32  29  89 CALM      30.14R
CUMBERLAND     FAIR      32  30  93 CALM      30.13S
RICE LAKE      FAIR      32  32 100 CALM      30.14S
CHETEK         FAIR      32  31  96 CALM      30.13R
LADYSMITH      FAIR      34  29  83 CALM      30.14S
6HR MIN TEMP:  32; 6HR MAX TEMP:  37;

EAU CLAIRE     NOT AVBL
MENOMONIE      FAIR      38  34  85 W3        30.13R
6HR MIN TEMP:  37; 6HR MAX TEMP:  46;

NEW RICHMOND   FAIR      35  32  87 S3        30.13S
OSCEOLA        FAIR      35  33  94 CALM      30.16R
$$

WIZ003>005-009-010-017-018-241300-
NORTH CENTRAL WISCONSIN

CITY           SKY/WX    TMP DP  RH WIND       PRES   REMARKS
MANITOWISH WTR FAIR      29  28  94 CALM      30.12S
ARBOR VITAE    FAIR      32  27  83 CALM      30.12R
WOODRUFF       FAIR      32  27  83 CALM      30.12R
RHINELANDER    FAIR      33  28  81 CALM      30.12R
6HR MIN TEMP:  30; 6HR MAX TEMP:  38;

EAGLE RIVER    FAIR      29  25  82 CALM      30.11S
6HR MIN TEMP:  28; 6HR MAX TEMP:  32;

LAND O LAKES   FAIR      30  26  84 CALM      30.14R
6HR MIN TEMP:  27; 6HR MAX TEMP:  31;

PHILLIPS       FAIR      31  28  90 CALM      30.12R
6HR MIN TEMP:  28; 6HR MAX TEMP:  33;

TOMAHAWK       FAIR      28  25  87 CALM      30.13R
MEDFORD        FAIR      32  28  86 CALM      30.11S
MERRILL        FAIR      29  26  90 CALM      30.13R
$$

WIZ029-030-035-036-043>047-241300-
CENTRAL WISCONSIN

CITY           SKY/WX    TMP DP  RH WIND       PRES   REMARKS
WAUSAU         FAIR      37  30  75 N3        30.11R
6HR MIN TEMP:  33; 6HR MAX TEMP:  40;

MOSINEE        PTCLDY    37  30  75 N3        30.13R
MARSHFIELD     FAIR      39  31  72 N3        30.10S
6HR MIN TEMP:  36; 6HR MAX TEMP:  48;

STEVENS POINT  FAIR      28  26  91 CALM      30.13R
WAUPACA        FAIR      35  31  82 CALM      30.12R
6HR MIN TEMP:  33; 6HR MAX TEMP:  38;

WAUTOMA        FAIR      35  31  85 CALM      30.12S
6HR MIN TEMP:  29; 6HR MAX TEMP:  37;

WISC RAPIDS    FAIR      34  27  75 CALM      30.13R
6HR MIN TEMP:  30; 6HR MAX TEMP:  40;

CAMP DOUGLAS   NOT AVBL
$$

WIZ011>013-019>022-031-037>040-048>050-241300-
NORTHEAST WISCONSIN

CITY           SKY/WX    TMP DP  RH WIND       PRES   REMARKS
ANTIGO         FAIR      32  29  89 CALM      30.11S
SHAWANO        FAIR      33  30  88 CALM      30.11R
6HR MIN TEMP:  32; 6HR MAX TEMP:  37;

OCONTO         FAIR      30  28  92 CALM      30.10S
STURGEON BAY   FAIR      42  32  67 CALM      30.12R
6HR MIN TEMP:  39; 6HR MAX TEMP:  44;

GREEN BAY      FAIR      36  33  89 W3        30.11R
6HR MIN TEMP:  35; 6HR MAX TEMP:  43;

MANITOWOC      FAIR      43  30  60 N3        30.10R
6HR MIN TEMP:  40; 6HR MAX TEMP:  46;

APPLETON       MOSUNNY   43  25  49 N5        30.09R
CLINTONVILLE   FAIR      34  26  74 CALM      30.11R
6HR MIN TEMP:  32; 6HR MAX TEMP:  37;

OSHKOSH        FAIR      41  35  79 CALM      30.10R
6HR MIN TEMP:  38; 6HR MAX TEMP:  46;

$$

WIZ032>034-041-042-053>061-241300-
SOUTHWEST WISCONSIN

CITY           SKY/WX    TMP DP  RH WIND       PRES   REMARKS
LA CROSSE      FAIR      41  35  79 CALM      30.12S
6HR MIN TEMP:  37; 6HR MAX TEMP:  48;

SPARTA         FAIR      29  26  90 CALM      30.13S
VIROQUA        FAIR      46  30  54 NW3       30.11S
BOSCOBEL       FAIR      34  32  92 CALM      30.13R
6HR MIN TEMP:  31; 6HR MAX TEMP:  40;

PRAIRIE DU CHI FAIR      36  30  78 CALM      30.12S
PLATTEVILLE    FAIR      40  32  74 N5        30.11R
$$

WIZ056-057-062-063-064-067-068-241300-
SOUTH CENTRAL WISCONSIN

CITY           SKY/WX    TMP DP  RH WIND       PRES   REMARKS
REEDSBURG      FAIR      35  33  94 CALM      30.12R
6HR MIN TEMP:  32; 6HR MAX TEMP:  41;

BARABOO/DELLS  FAIR      32  28  86 CALM      30.11R
LONE ROCK      FAIR      33  31  92 CALM      30.13R
6HR MIN TEMP:  31; 6HR MAX TEMP:  39;

MINERAL POINT  FAIR      43  32  65 CALM      30.11R
MADISON        FAIR      39  32  76 CALM      30.10R
6HR MIN TEMP:  36; 6HR MAX TEMP:  45;

MIDDLETON      FAIR      36  32  85 CALM      30.10S
WATERTOWN      FAIR      43  34  70 CALM      30.09R
MONROE         FAIR      46  28  49 N6        30.09R
JANESVILLE     MOCLDY    46  36  66 CALM      30.09R
$$

WIZ051-052-058>065-066-070>072-241300-
SOUTHEAST WISCONSIN

CITY           SKY/WX    TMP DP  RH WIND       PRES   REMARKS
MILWAUKEE      CLOUDY    47  32  56 N7        30.09R
6HR MIN TEMP:  44; 6HR MAX TEMP:  50;

WAUKESHA       MOSUNNY   45  30  57 CALM      30.10R
MILWAUKEE/TIMM FAIR      46  27  46 CALM      30.09R
RACINE         CLOUDY    45  34  65 N5        30.09S
6HR MIN TEMP:  43; 6HR MAX TEMP:  46;

BURLINGTON     FAIR      45  33  62 CALM      30.08R
KENOSHA        CLOUDY    49  32  52 CALM      30.07S
6HR MIN TEMP:  45; 6HR MAX TEMP:  49;

FOND DU LAC    FAIR      35  31  85 NW3       30.10R
6HR MIN TEMP:  35; 6HR MAX TEMP:  43;

SHEBOYGAN      FAIR      42  35  76 CALM      30.09R
6HR MIN TEMP:  41; 6HR MAX TEMP:  46;

WEST BEND      FAIR      43  30  61 NW6       30.09R
JUNEAU         FAIR      41  30  65 CALM      30.10R
$$

LSZ147-162-241300-
LAKE SUPERIOR

STATION/POSITION TIME  TEMP    WIND        PRES    WAVE
                       AIR SEA DIR/SP/G            HT/PER
                 (UTC) (F)     (DEG/KT/KT) (MB)    (FT/S)
DEVILS ISLAND    1100   41      60/ 12/ 13 1022.1R
SAXON HARBOR     1130   31     240/  2/  3 1020.7R
$$

LMZ867-665-643>646-241300-
LAKE MICHIGAN

STATION/POSITION TIME  TEMP    WIND        PRES    WAVE
                       AIR SEA DIR/SP/G            HT/PER
                 (UTC) (F)     (DEG/KT/KT) (MB)    (FT/S)
NORTHPORT PIER   1140   44                 1019.3R
KEWAUNEE LAKESHO 1124   40      20/  3/  4 1018.6
SHEBOYGAN LAKESH 1100   45      10/  8/ 10 1018.9R
PORT WASHINGTON  1130   46      CALM  /  2 1019.6R
MILWAUKEE LAKESH 1130   43      40/  7/  7   N/A
KENOSHA   LAKESH 1100   42                 1018.3
$$

TC  - TEMPERATURE IN CELSIUS
VSB - VISIBILITY IN STATUTE MILES
WCI - WIND CHILL INDEX
HX  - HEAT INDEX





USA.gov is the U.S. government's official web portal to all federal, state and local government web resources and services.